Wind_Speed
21 20 18 17 18 21 23 24 24 23 26 28 31 32 34 35 33 31 30 27 23 21 22 24 27 29 32 35 36 37 37 37 37 37 36 36 36 36 36 36 37 38 40 42
19 18 16 15 16 18 18 20 21 22 23 27 29 29 28 28 26 22 19 14 10 10 13 18 21 25 29 32 33 34 34 33 33 33 33 33 33 33 34 35 37 39 41 43
17 16 14 13 14 14 15 18 19 20 22 25 25 25 24 23 20 15 11 5 1 5 11 15 20 24 26 28 29 29 29 28 29 29 29 30 30 31 33 35 37 39 41 43
15 14 13 12 11 12 14 15 16 18 20 21 22 21 20 19 18 13 10 8 8 10 13 16 19 22 23 24 24 24 24 24 24 24 25 27 28 30 32 35 37 40 41 43
13 12 11 10 10 11 11 12 14 15 16 17 18 18 17 17 17 17 15 13 15 16 17 18 19 20 20 20 19 18 18 18 19 20 22 25 27 30 33 35 37 39 41 43
11 10 9 8 8 8 9 10 12 12 13 15 15 16 16 15 16 17 18 18 17 18 18 18 18 17 16 16 15 14 15 16 18 20 22 25 27 30 32 35 36 39 41 44
11 9 8 7 7 7 7 8 10 11 11 13 13 13 13 14 14 15 15 16 16 16 15 15 15 14 13 12 12 12 13 15 17 20 23 25 27 30 32 34 37 39 42 45
11 10 9 8 7 7 7 7 8 9 10 10 10 9 9 10 11 11 12 12 13 13 12 12 12 11 11 11 11 12 14 17 19 21 23 25 27 29 32 34 37 40 43 46
12 11 10 9 8 7 7 7 7 8 7 8 7 7 7 7 8 8 8 7 8 9 8 8 9 9 9 10 12 13 14 16 18 19 21 24 27 29 33 36 39 41 44 46
12 12 11 10 9 8 7 7 7 6 5 5 6 5 4 4 6 5 5 5 5 6 6 5 5 6 7 7 8 9 11 14 16 19 22 25 28 31 34 37 40 42 44 47
14 14 12 11 10 9 8 8 7 6 5 4 3 3 2 2 3 3 3 3 3 2 2 2 2 3 4 6 7 10 12 15 18 21 24 27 30 33 36 38 40 43 45 48
16 15 14 13 12 11 10 9 8 7 7 5 4 3 2 1 1 0 1 1 1 0 1 1 2 3 5 7 10 12 15 18 20 23 26 29 32 34 37 39 41 44 47 50
16 16 15 14 14 13 11 10 9 8 7 6 5 4 3 3 2 2 2 2 2 2 3 3 5 6 9 11 13 16 18 21 23 26 29 31 33 35 37 40 43 46 48 52
16 16 16 16 15 14 13 12 11 10 9 7 6 6 5 5 4 4 4 4 5 5 5 6 8 10 12 15 17 19 22 24 26 28 29 32 34 36 38 41 44 48 52 56
17 17 16 16 15 14 14 13 12 11 11 10 8 7 7 6 6 6 6 6 6 7 8 10 12 15 17 19 21 23 24 26 27 29 31 33 35 38 40 43 47 51 56 61
16 17 17 16 15 15 14 14 14 13 12 11 10 10 9 9 9 9 9 9 10 11 13 15 17 19 21 22 23 25 26 27 28 30 32 34 36 39 43 46 50 55 60 64
16 16 17 17 16 15 14 14 14 13 13 12 12 12 12 12 12 12 12 13 14 15 17 18 20 22 23 23 24 25 27 28 29 31 33 35 39 42 46 49 54 60 63 66
16 16 16 16 16 16 15 15 14 14 14 13 13 13 13 13 13 14 14 15 16 18 19 21 22 23 23 24 25 26 27 28 30 32 34 38 41 45 48 53 58 63 65 65
16 16 16 16 15 15 15 15 15 15 15 14 14 15 15 15 15 16 16 17 19 19 21 22 22 23 24 25 26 26 28 29 31 34 37 41 44 48 52 57 62 65 64 62
16 16 16 16 15 15 15 15 15 15 15 15 15 16 16 16 16 17 18 19 20 21 21 22 23 24 24 25 26 27 28 30 33 36 40 44 47 51 56 60 64 64 60 56
16 16 16 16 16 15 15 16 16 16 16 16 16 17 17 17 18 18 19 20 20 21 21 22 23 24 25 26 27 28 30 33 36 39 43 46 50 54 59 63 63 59 54 47
16 16 16 16 16 16 16 17 17 17 17 17 17 17 17 18 18 19 19 20 20 21 22 23 24 24 25 26 28 29 32 35 38 42 45 49 53 57 61 62 59 53 45 38
17 17 17 18 17 17 17 18 18 18 18 18 18 18 18 19 20 20 20 20 21 22 23 24 24 25 26 27 29 31 34 37 41 44 48 52 55 59 61 59 53 45 37 30
20 19 19 19 19 19 19 19 19 19 19 19 19 19 20 20 20 21 21 22 22 23 24 25 26 26 27 29 31 33 36 40 43 47 50 54 58 60 58 54 47 38 31 24
22 22 21 21 21 21 21 21 21 21 21 21 20 20 21 21 22 22 22 23 24 24 25 26 26 27 28 30 32 35 38 42 45 49 52 56 59 58 55 48 40 32 25 19
25 25 25 24 24 24 23 23 22 22 22 22 22 22 23 23 23 24 24 24 25 26 26 27 27 28 30 32 34 37 40 44 47 50 54 58 59 56 49 42 34 26 20 16
28 28 28 28 27 27 27 26 25 24 25 25 25 25 25 25 25 25 25 25 26 26 27 27 28 29 31 33 37 39 42 45 49 52 56 57 56 50 43 35 27 21 16 12
Wind_Direction
244 251 259 267 275 282 290 298 306 315 319 322 321 319 318 316 312 306 301 293 282 267 250 234 223 219 212 206 205 207 211 216 221 227 233 240 246 252 258 264 271 276 281 284
241 251 260 270 278 287 295 302 311 321 328 328 330 329 328 326 324 320 316 304 283 247 225 212 205 202 196 195 198 202 208 213 220 228 234 241 248 255 262 268 273 279 282 285
240 249 259 269 280 292 303 310 316 325 332 335 339 340 341 342 345 347 351 358 90 164 171 176 180 182 184 187 192 198 205 212 221 229 237 245 253 259 266 271 276 280 282 285
235 247 262 271 284 298 308 315 322 328 335 342 346 349 355 2 10 19 39 66 100 129 144 155 163 168 173 179 185 194 203 212 223 232 241 250 257 265 270 274 277 280 283 286
231 245 258 272 288 300 308 317 328 333 340 346 354 2 10 19 30 44 57 82 99 113 127 140 149 156 163 172 181 191 202 215 226 237 247 255 261 266 271 275 278 282 285 289
231 239 252 271 287 299 311 322 334 339 343 350 358 6 18 33 47 60 68 81 95 106 116 126 133 142 153 163 174 189 206 221 233 242 251 257 263 269 273 277 282 286 290 293
231 238 248 265 284 299 312 326 338 343 346 349 353 5 21 37 53 65 74 86 95 105 114 123 131 140 151 167 183 200 216 230 242 249 255 262 268 273 278 283 288 291 294 296
233 241 247 260 279 295 306 321 336 345 351 352 355 11 23 35 52 65 74 90 101 108 117 129 141 153 165 179 194 212 225 236 246 254 262 269 275 280 285 289 292 295 298 300
235 242 249 257 272 285 293 307 320 332 341 356 360 10 20 31 46 62 74 91 106 116 129 143 156 171 187 202 218 230 239 249 258 266 273 279 284 288 292 294 297 299 301 303
235 242 246 254 266 277 286 298 305 315 326 333 342 351 16 46 45 52 70 87 104 117 128 146 167 185 202 220 236 249 261 269 275 280 285 289 292 294 296 298 300 302 304 306
237 243 248 253 261 269 276 287 297 299 308 314 324 339 4 42 49 56 68 80 83 96 121 167 200 223 240 255 267 274 280 285 288 290 292 295 296 298 300 302 304 306 307 308
238 243 246 248 254 261 268 274 283 287 293 296 301 296 294 314 327 317 130 128 140 228 249 249 261 275 282 286 289 291 293 294 295 296 298 300 301 303 305 306 308 309 310 312
237 241 243 245 250 256 260 264 270 275 277 279 275 278 271 269 261 239 248 259 266 275 280 282 290 296 299 299 299 299 299 299 300 301 302 304 305 307 309 310 312 313 314 315
238 240 242 244 247 251 254 256 261 263 265 268 266 263 265 264 259 264 269 273 275 280 286 295 300 302 304 305 304 303 303 303 303 304 306 308 310 311 313 314 315 316 317 318
240 240 241 244 246 249 251 252 255 257 258 260 261 257 258 258 257 262 264 268 276 282 289 296 300 302 304 304 304 304 305 305 306 308 310 312 313 315 316 318 319 319 320 320
240 240 240 243 246 248 249 250 251 253 255 254 255 254 256 258 260 262 265 269 276 284 291 296 299 301 302 303 305 305 306 308 309 311 313 315 317 318 320 320 321 321 322 321
240 240 241 243 244 246 247 249 248 249 251 253 254 256 258 261 264 265 269 275 281 286 291 296 298 301 302 304 305 307 308 310 312 314 316 318 320 321 322 322 323 323 323 322
237 239 240 240 242 244 245 245 245 248 249 249 252 256 258 263 267 270 274 279 285 289 292 296 299 301 302 304 306 308 310 313 315 317 319 321 322 323 323 324 325 325 324 323
237 237 238 240 241 241 242 245 246 250 251 251 252 256 262 267 270 273 277 283 287 291 294 297 299 300 302 304 307 310 312 315 317 319 321 323 323 324 324 326 326 326 325 325
237 239 240 240 240 241 244 246 248 250 250 252 256 261 265 269 271 275 279 284 288 292 295 296 298 301 303 305 308 311 314 316 319 320 322 324 325 325 326 327 327 327 326 327
240 240 240 239 240 243 244 246 248 249 251 255 259 262 266 270 274 277 281 285 288 292 294 296 299 301 304 307 310 312 315 318 320 322 323 325 326 327 327 328 328 328 328 329
241 241 241 241 242 244 246 248 250 252 254 257 261 265 268 272 276 279 282 286 290 293 295 298 300 303 305 308 311 313 316 319 321 323 325 326 327 328 328 329 329 328 329 331
244 243 243 243 244 246 247 250 252 253 256 259 263 267 271 275 278 281 283 287 291 294 296 299 302 304 306 309 312 314 317 320 323 324 326 327 328 329 329 329 329 329 330 332
249 248 248 246 245 246 248 251 254 255 257 259 263 267 272 276 279 281 285 288 291 294 298 301 303 304 307 309 312 315 318 321 323 325 327 328 329 330 329 329 328 328 328 330
252 251 251 250 250 251 251 251 253 255 257 260 263 267 271 275 278 282 285 289 292 295 298 301 303 305 307 311 314 317 320 322 324 326 328 329 330 329 328 328 327 326 326 327
254 253 251 251 252 252 252 253 255 256 258 260 264 267 270 274 278 282 285 289 292 295 298 300 302 305 309 312 315 318 321 323 325 327 328 329 330 329 328 327 325 324 323 323
256 255 254 253 253 253 253 253 255 257 259 261 264 267 270 273 277 281 285 289 291 294 296 299 302 306 309 313 316 319 322 324 326 328 329 329 330 329 327 325 323 321 320 319
Height
5617 5619 5621 5622 5622 5620 5618 5616 5613 5610 5606 5601 5594 5586 5578 5569 5560 5552 5544 5538 5535 5534 5536 5542 5549 5557 5567 5577 5589 5600 5610 5618 5627 5634 5640 5645 5649 5652 5654 5655 5655 5655 5653 5651
5614 5616 5617 5618 5618 5616 5614 5611 5608 5605 5602 5596 5589 5581 5573 5564 5555 5547 5540 5535 5532 5533 5535 5541 5548 5556 5566 5576 5587 5597 5606 5615 5623 5630 5635 5640 5643 5646 5647 5648 5648 5646 5644 5642
5611 5612 5614 5615 5614 5613 5611 5608 5605 5602 5599 5593 5587 5579 5571 5563 5554 5546 5540 5536 5535 5536 5538 5544 5551 5559 5568 5578 5587 5597 5605 5613 5620 5626 5631 5635 5638 5640 5641 5641 5639 5638 5635 5632
5608 5611 5611 5614 5611 5610 5608 5606 5603 5599 5595 5591 5586 5579 5572 5565 5557 5550 5545 5542 5541 5542 5545 5550 5557 5564 5573 5581 5589 5597 5605 5612 5618 5623 5627 5630 5632 5634 5634 5633 5631 5629 5626 5622
5606 5607 5608 5609 5608 5607 5605 5604 5601 5597 5594 5590 5586 5581 5575 5568 5562 5556 5552 5549 5549 5550 5553 5558 5564 5571 5577 5585 5592 5599 5605 5611 5616 5620 5623 5626 5627 5627 5626 5625 5623 5620 5616 5612
5603 5604 5606 5608 5606 5604 5604 5602 5599 5596 5593 5591 5587 5584 5579 5573 5568 5564 5561 5559 5559 5560 5563 5567 5572 5577 5583 5588 5594 5600 5605 5610 5613 5617 5619 5620 5620 5620 5619 5617 5614 5610 5606 5601
5600 5601 5603 5604 5603 5603 5603 5602 5598 5595 5593 5591 5588 5586 5583 5578 5575 5572 5570 5569 5569 5570 5572 5575 5578 5583 5587 5592 5596 5601 5605 5608 5611 5613 5614 5614 5614 5613 5611 5608 5604 5600 5596 5591
5598 5599 5603 5602 5601 5601 5600 5598 5597 5595 5593 5591 5589 5587 5584 5582 5580 5578 5577 5576 5577 5578 5579 5582 5584 5587 5591 5594 5598 5601 5604 5606 5608 5609 5609 5608 5607 5605 5602 5599 5595 5590 5585 5579
5597 5599 5599 5599 5598 5599 5598 5597 5596 5595 5593 5592 5590 5588 5587 5585 5584 5583 5582 5582 5582 5583 5584 5586 5588 5591 5593 5596 5598 5600 5602 5603 5604 5604 5603 5602 5600 5597 5594 5590 5585 5580 5575 5568
5593 5595 5595 5596 5596 5596 5596 5596 5595 5594 5593 5592 5591 5589 5588 5587 5587 5586 5586 5586 5586 5587 5588 5589 5591 5592 5594 5596 5597 5599 5599 5600 5599 5598 5597 5595 5592 5589 5585 5581 5576 5570 5564 5557
5590 5591 5592 5593 5594 5594 5594 5594 5593 5593 5592 5591 5591 5590 5589 5589 5588 5588 5588 5588 5588 5589 5590 5591 5592 5593 5594 5595 5595 5596 5595 5595 5594 5592 5590 5587 5584 5580 5576 5571 5565 5560 5553 5546
5587 5588 5590 5591 5591 5592 5592 5592 5592 5591 5591 5590 5590 5590 5589 5589 5589 5589 5589 5589 5589 5590 5590 5591 5591 5592 5592 5593 5592 5592 5591 5590 5588 5586 5583 5580 5576 5571 5566 5561 5555 5549 5541 5534
5583 5584 5586 5587 5588 5589 5589 5589 5589 5589 5589 5589 5589 5589 5589 5589 5589 5589 5589 5589 5589 5589 5590 5590 5590 5590 5590 5589 5589 5587 5586 5584 5581 5579 5575 5572 5567 5563 5557 5552 5545 5537 5530 5521
5579 5581 5582 5583 5584 5585 5586 5586 5587 5587 5587 5587 5587 5588 5588 5588 5588 5588 5588 5588 5588 5588 5588 5588 5588 5587 5586 5585 5584 5582 5580 5578 5575 5571 5568 5563 5559 5554 5548 5542 5535 5526 5518 5508
5575 5577 5579 5580 5581 5582 5582 5583 5584 5584 5585 5585 5585 5586 5586 5586 5586 5586 5586 5586 5586 5586 5586 5585 5585 5584 5582 5581 5579 5576 5574 5571 5567 5564 5560 5556 5551 5545 5539 5532 5524 5516 5506 5495
5571 5573 5574 5576 5577 5578 5579 5580 5581 5581 5582 5582 5583 5584 5584 5584 5584 5584 5584 5584 5584 5583 5583 5582 5581 5579 5577 5575 5573 5570 5567 5564 5560 5557 5552 5548 5542 5536 5529 5522 5513 5504 5494 5482
5567 5569 5570 5572 5573 5574 5575 5576 5577 5578 5579 5579 5580 5580 5581 5581 5581 5581 5581 5581 5580 5580 5579 5577 5576 5574 5571 5569 5566 5564 5560 5557 5553 5549 5545 5540 5534 5527 5520 5512 5503 5492 5480 5468
5563 5565 5566 5568 5569 5570 5571 5572 5573 5574 5575 5576 5576 5577 5577 5578 5578 5578 5577 5577 5576 5575 5574 5572 5570 5568 5566 5563 5560 5557 5554 5550 5546 5542 5537 5532 5525 5518 5510 5501 5491 5480 5467 5454
5559 5561 5562 5564 5565 5566 5567 5568 5569 5570 5571 5572 5572 5573 5573 5574 5574 5573 5573 5572 5571 5570 5568 5567 5564 5562 5560 5557 5554 5551 5548 5544 5540 5535 5529 5523 5516 5508 5500 5490 5479 5467 5454 5441
5556 5557 5558 5559 5561 5562 5563 5564 5565 5566 5567 5567 5568 5569 5569 5569 5569 5569 5568 5567 5566 5565 5563 5561 5559 5557 5554 5551 5548 5545 5541 5537 5532 5527 5521 5515 5507 5499 5489 5479 5467 5454 5442 5430
5552 5553 5554 5555 5557 5558 5559 5560 5561 5562 5563 5563 5564 5564 5564 5564 5564 5564 5563 5562 5561 5559 5557 5555 5553 5551 5548 5545 5542 5538 5534 5530 5525 5519 5513 5505 5497 5488 5478 5467 5455 5443 5432 5422
5547 5548 5550 5551 5552 5553 5554 5555 5556 5557 5558 5558 5559 5559 5559 5559 5559 5558 5557 5556 5555 5553 5552 5550 5547 5545 5542 5539 5535 5532 5527 5523 5517 5511 5504 5496 5487 5478 5467 5456 5444 5433 5424 5415
5542 5544 5545 5546 5547 5548 5549 5550 5551 5552 5553 5554 5554 5554 5554 5554 5554 5553 5552 5551 5549 5548 5546 5544 5541 5538 5535 5532 5529 5525 5520 5515 5509 5502 5495 5487 5477 5467 5456 5445 5435 5425 5418 5411
5537 5539 5540 5541 5542 5543 5544 5545 5546 5547 5548 5548 5549 5549 5549 5548 5548 5547 5546 5545 5543 5542 5540 5537 5535 5532 5529 5525 5522 5517 5512 5507 5500 5493 5485 5477 5467 5457 5446 5436 5426 5419 5412 5407
5531 5533 5534 5535 5536 5537 5538 5539 5540 5541 5542 5542 5543 5543 5543 5542 5542 5541 5540 5539 5537 5535 5533 5531 5528 5525 5522 5518 5514 5510 5504 5498 5492 5484 5476 5467 5457 5446 5436 5427 5419 5412 5408 5404
5524 5526 5527 5528 5530 5531 5532 5533 5534 5534 5535 5536 5536 5536 5536 5536 5535 5534 5533 5532 5530 5528 5526 5524 5521 5518 5515 5511 5507 5502 5496 5490 5483 5475 5466 5456 5446 5436 5427 5419 5412 5407 5403 5401
5516 5517 5519 5520 5522 5523 5524 5525 5527 5527 5528 5528 5529 5529 5529 5529 5528 5527 5526 5525 5523 5521 5519 5517 5514 5511 5508 5504 5499 5494 5488 5481 5473 5465 5456 5446 5436 5426 5418 5412 5406 5403 5400 5398